STARLINK-1481 (45742 NORAD) Tracking and Keplerian Element Data

This shows tracking and keplerian element data for the satellite.

Feedback or suggestion? Click here.




ElementValue
Catalog45742
NameSTARLINK-1481
Epoch Orbit957
Epoch Day218.91667824
Epoch Year2020
RAAN42.518
Inclination52.9962
Eccentricity0.0001476
Argument of Perigee94.9203
Mean Anonmoly322.909
Mean Motion15.05575162
Decay Rate0.00032852
L11 45742U 20038N 20218.91667824 .00032852 00000-0 22637-2 0 9993
L22 45742 52.9962 42.5180 0001476 94.9203 322.9090 15.05575162 9575

Live tracking and technical data element details for STARLINK-1481 (NORAD 45742). STARLINK-1481 can be tracked NOW for your location showing map with azimuth and elevation plus other details from your city location.

Track the satellite on the map from your city or location and see movement details for azimuth, elevation, latitude, longitude, range, height, and movement on the map or in text.







IsCatalogInMostPopularTable: catalog: 45742, numindb: 9
Update: records affected: 1



GetName: 45742 STARLINK-1481

Hit Count: updated at: Fri, 07 Aug 2020 23:36:18 GMT